STARLINK-32049, 60199

Orbit data source: Space-Track

STARLINK-32049, 60199 is a payload satellite owned by SpaceX/Seattle (US) in LEO that was launched on Wed, 03 Jul 2024 UTC via an FALCON 9 launch vehicle from the Air Force Eastern Test Range (AFETR). Payload-class satellites include a variety of spacecraft equipped with specific instruments for various scientific and technological missions. These include communications satellites like Starlink; space stations such as the ISS; scientific satellites like the Hubble; Earth observation satellites from companies like Planet Labs, Umbra, and HawkEye 360; GPS; miniature CubeSats for education and research; and military/defense satellites.

Loading next visibility...
Identifier
60199, 2024-124S
Orbit
LEO
Country
Flag of USUS
Related business
Manufacturer
SpaceX/Seattle
Mission
Operational Commercial Communications
Bus & Motor
STARLINK V2M, Unknown motor
Mass
730 kg wet, ~700 kg dry
Launch date (UTC)
2024-07-03 (2 years ago)
Launch vehicle
FALCON 9
Launch site
Air Force Eastern Test Range (AFETR)
Object type
Payload
Rocket body
Debris
Shape & HBR
Box + 2 Pan, 17.7 m
Radar Cross Section
33.884 m², Large (>1 m²)

Expand to show TLE details & history
Last TLE update: 20 hours ago

TLE from 20 hours ago
0 STARLINK-32049
1 60199U 24124S   26034.46869995  .00000134  00000-0  16659-4 0  9998
2 60199  53.1593 121.6392 0001088  84.7485 275.3639 15.30191166 90287
Epoch: 2026-02-03T11:14Z
TLE epoch observation values (Epoch: 2026-02-03T11:14:55.675Z)
Latitude
-0.0001°
Longitude
179.25795°
Altitude
476.071 km
Speed
7.629 km/s
True Right ascension
08h 06m 33s
True Declination
0° 00' 00"
Sunlit
Object was in full shadow at epoch
Visualization orbit readout
Latitude
Unknown
Longitude
Unknown
Altitude
Unknown
Speed
Unknown
Apparent Right ascension
Unknown
Apparent Declination
Unknown
Sunlit
N/A
Visualization observer readout
Local Sidereal Time
09:09:45
Azimuth
Unknown
Elevation
Unknown
Doppler factor
Unknown
Orbital elements
Apogee altitude
476.244 km
Perigee altitude
474.752 km
Semi-major axis
6,853.635 km
Eccentricity
0.00011
Inclination
53.1593°
RAAN
121.6392°
Arg. of periapsis
84.7485°
True anomaly
275.35149°
Mean anomaly
275.3639°
Eccentric anomaly
275.35769°
Mean motion
3.82527 °/min
Orbital period
94.11 mins
BSTAR
0.000016659
Loading maneuver chart data...
Computing Atmospheric mass density...
Loading historical data...
Loading historical data...
Loading historical data...
Loading historical data...
Loading historical data...
Loading historical data...
Loading historical data...

Documentation

Showing up to 5 results
|